TimeEDT,TemperatureF,Dew PointF,Humidity,Sea Level PressureIn,VisibilityMPH,Wind Direction,Wind SpeedMPH,Gust SpeedMPH,PrecipitationIn,Events,Conditions,WindDirDegrees,DateUTC
12:52 AM,23.0,19.9,88,30.38,8.0,NNW,3.5,-,N/A,,Clear,340,2013-03-10 05:52:00
1:52 AM,24.1,21.9,91,30.39,7.0,NW,3.5,-,N/A,,Clear,310,2013-03-10 06:52:00
3:52 AM,21.9,21.0,96,30.38,8.0,Calm,Calm,-,N/A,,Clear,0,2013-03-10 07:52:00
4:52 AM,21.9,19.0,89,30.38,8.0,Calm,Calm,-,N/A,,Clear,0,2013-03-10 08:52:00
5:52 AM,21.0,19.0,92,30.39,9.0,Calm,Calm,-,N/A,,Clear,0,2013-03-10 09:52:00
6:52 AM,19.9,17.1,89,30.40,10.0,Calm,Calm,-,N/A,,Clear,0,2013-03-10 10:52:00
8:52 AM,25.0,23.0,92,30.43,10.0,NW,3.5,-,N/A,,Clear,320,2013-03-10 12:52:00
9:52 AM,33.1,27.0,78,30.42,10.0,Calm,Calm,-,N/A,,Clear,0,2013-03-10 13:52:00
10:52 AM,37.0,28.0,70,30.42,10.0,Calm,Calm,-,N/A,,Clear,0,2013-03-10 14:52:00
11:52 AM,39.0,28.0,65,30.40,10.0,ESE,4.6,-,N/A,,Clear,120,2013-03-10 15:52:00
12:52 PM,42.1,27.0,55,30.38,10.0,Calm,Calm,-,N/A,,Clear,0,2013-03-10 16:52:00
1:52 PM,44.1,27.0,51,30.37,10.0,Calm,Calm,-,N/A,,Clear,0,2013-03-10 17:52:00
2:52 PM,45.0,27.0,49,30.34,10.0,Calm,Calm,-,N/A,,Clear,0,2013-03-10 18:52:00
3:52 PM,45.0,26.1,48,30.33,10.0,SSE,5.8,-,N/A,,Clear,160,2013-03-10 19:52:00
4:52 PM,46.0,28.0,50,30.32,10.0,South,5.8,-,N/A,,Clear,170,2013-03-10 20:52:00
5:52 PM,46.0,27.0,47,30.31,10.0,SSE,8.1,-,N/A,,Clear,150,2013-03-10 21:52:00
6:52 PM,44.1,28.0,53,30.32,10.0,SE,5.8,-,N/A,,Clear,140,2013-03-10 22:52:00
7:52 PM,41.0,28.9,62,30.34,10.0,SE,6.9,-,N/A,,Clear,130,2013-03-10 23:52:00
8:52 PM,39.0,28.9,67,30.34,10.0,ESE,4.6,-,N/A,,Partly Cloudy,120,2013-03-11 00:52:00
9:52 PM,37.0,30.0,76,30.32,10.0,SE,6.9,-,N/A,,Mostly Cloudy,140,2013-03-11 01:52:00
11:52 PM,36.0,30.0,79,30.31,10.0,East,5.8,-,N/A,,Clear,90,2013-03-11 03:52:00
12:52 AM,34.0,30.0,85,30.30,10.0,Calm,Calm,-,N/A,,Clear,0,2013-03-11 04:52:00